Location: Seattle
(47.6060°N, 122.3310°W)
Time: 13:12:40
(UTC-08:00)

ISS - Visible Passes

Search period start: 22 November 2014 00:00
Search period end: 02 December 2014 00:00
Orbit: 408 x 417 km, 51.6° (Epoch: 22 November)

Date Brightness Start Highest point End Pass type
(mag) Time Alt. Az. Time Alt. Az. Time Alt. Az.
22 Nov -0.6 04:40:05 19° ENE 04:40:05 19° ENE 04:41:17 10° ENE visible
22 Nov -3.3 06:12:55 20° WNW 06:15:04 82° NNE 06:18:23 10° ESE visible
23 Nov -3.1 05:25:17 60° N 05:25:21 60° NNE 05:28:38 10° E visible
24 Nov -0.5 04:37:39 19° E 04:37:39 19° E 04:38:46 10° E visible
24 Nov -2.9 06:10:28 23° W 06:12:15 50° SSW 06:15:28 10° SE visible
25 Nov -3.1 05:22:49 69° SSE 05:22:49 69° SSE 05:25:49 10° ESE visible
26 Nov -0.3 04:35:11 16° ESE 04:35:11 16° ESE 04:35:59 10° ESE visible
26 Nov -1.8 06:08:00 20° WSW 06:09:05 23° SW 06:11:46 10° SSE visible
27 Nov -1.8 05:20:22 28° S 05:20:22 28° S 05:22:24 10° SE visible
28 Nov -0.8 06:05:35 11° SW 06:05:35 11° SW 06:06:16 10° SW visible
29 Nov -0.4 05:18:00 10° S 05:18:00 10° S 05:18:02 10° S visible
